Tracking 30743 objects as of 25-Jun-2025
HD Live streaming from Space Station
objects crossing your sky now

RADUGA 2

Track RADUGA 2 now!
RADUGA 2 is classified as:


NORAD ID: 9416
Int'l Code: 1976-092A
Perigee: 35,682.6 km
Apogee: 35,916.0 km
Inclination: 4.4 °
Period: 1,436.4 minutes
Semi major axis: 42170 km
RCS: 0.1428 m2 (medium)
Launch date: September 11, 1976
Source: Commonwealth of Independent States (former USSR) (CIS)
Launch site: TYURATAM MISSILE AND SPACE COMPLEX (TTMTR)
Your satellite tracking list
Your tracking list is empty




NASA's NSSDC Master Catalog

Two Line Element Set (TLE):
1 09416U 76092A   25175.37378788 -.00000150  00000-0  00000-0 0  9992
2 09416   4.4003 275.0492 0027682  29.1894 185.8126  1.00252013125755
Source of the keplerian elements: AFSPC